User: anonymous
Location: Unspecified
(0.0000°N, 0.0000°E)
Time: 04:36:07
(UTC+00:00)
Language:

Transit 2A Rocket - Orbit

View from above orbital plane
View from above orbital plane
View from above satellite
View from above satellite

Ground track
Ground track

The orbit data is extracted from the following two-line orbital elements,

1 00047U 60007C   14245.50250784  .00000085  00000-0  44701-4 0  2908
2 00047 066.6675 048.0891 0224601 048.7572 313.2644 14.41201370830228
Epoch (UTC): 02 September 2014 12:03:36
Eccentricity: 0.0224601
inclination: 66.6675°
perigee height: 594 km
apogee height: 915 km
right ascension of ascending node: 48.0891°
argument of perigee: 48.7572°
revolutions per day: 14.41201370
mean anomaly at epoch: 313.2644°
orbit number at epoch: 83022

The dashed part of the orbit path shows where the satellite is in the earth's shadow,  

DLR